RH
26 24 24 22 22 22 23 23 24 24 24 26 26 27 27 30 32 34 38 35 34 33 32 30 30 29 29 28 27 26 26 26 25 24 24 23 23 24 24 24 24 24 24 24 25 25 25 24 24 25 24 24 23 23 22 24 27 30 33 33 33 33 32 30 30 32 38 64 84 94 94 90 90 92 96 97 95 92 86 87 90 94 96 95 95 96 96 95 95 95 93 88 81 73 64 58 55 54 58 55 54 55 61
24 23 22 21 22 22 23 24 24 26 26 28 28 30 32 34 37 40 40 38 36 35 34 34 35 36 36 36 35 33 31 30 29 28 27 26 24 23 23 23 23 23 23 23 23 22 22 22 23 23 24 23 22 22 21 21 24 29 34 36 36 35 32 31 30 29 29 42 64 85 95 91 90 92 94 96 97 96 94 92 92 94 95 93 94 96 94 95 96 97 96 96 94 91 84 74 66 60 54 50 47 47 52
23 22 21 22 23 24 24 25 27 30 31 32 34 36 40 45 48 51 56 44 39 37 38 40 42 42 42 41 40 38 36 36 35 34 34 33 31 30 28 28 27 27 27 26 26 26 25 25 25 26 26 26 25 24 23 23 24 26 31 34 35 34 32 31 30 30 30 32 47 70 93 90 92 95 94 96 97 97 96 94 94 95 96 94 94 94 92 92 91 92 95 97 97 96 96 90 85 78 70 60 54 50 49
23 22 23 24 26 27 28 30 33 34 34 36 39 42 42 58 60 62 76 57 48 44 45 46 47 47 46 44 42 41 40 38 37 36 36 36 36 35 35 34 34 33 33 32 32 32 31 31 30 30 31 32 32 31 29 27 27 28 30 33 34 33 32 32 33 34 35 39 49 65 88 90 93 95 94 95 96 96 96 96 95 96 97 96 94 93 93 92 90 87 85 89 91 93 96 96 97 96 89 78 69 62 58
24 24 26 28 30 32 34 37 40 40 41 43 47 50 50 52 57 65 74 64 57 52 51 51 51 50 48 46 44 44 42 41 39 37 35 34 33 33 33 33 33 34 34 34 34 35 35 36 36 36 37 38 38 36 33 31 30 31 34 34 34 34 33 34 36 38 40 54 66 77 88 92 93 93 94 94 96 96 97 97 97 98 98 96 93 90 85 90 94 93 90 83 82 85 92 95 96 97 96 93 87 80 74
26 28 31 34 36 39 42 44 45 46 46 51 56 58 58 60 62 65 68 64 58 53 55 54 52 51 48 46 46 46 46 43 40 37 34 32 30 30 30 30 30 31 32 33 34 36 37 38 39 40 42 42 40 37 33 30 31 32 35 35 34 34 33 38 40 42 46 60 74 86 96 96 95 94 95 96 96 96 96 98 98 98 98 98 96 92 87 88 92 95 93 90 84 78 76 80 89 96 96 97 97 96 92
29 32 36 40 42 46 48 50 52 52 54 61 68 71 66 65 64 63 62 60 57 53 54 53 52 50 48 47 47 48 48 45 41 37 33 30 28 27 28 28 30 31 32 34 36 38 39 41 43 44 44 42 38 32 28 27 30 33 36 35 33 32 31 36 39 44 55 67 82 94 97 96 95 94 95 97 97 96 97 94 94 96 98 98 98 97 95 92 93 95 93 94 95 92 86 78 76 81 92 96 96 96 98
33 37 42 46 50 52 54 56 57 58 59 67 73 76 75 69 64 60 58 58 56 54 53 52 50 49 47 48 49 50 50 45 40 36 33 30 28 26 26 27 28 31 33 35 38 40 42 43 44 44 43 38 32 28 26 24 28 33 36 34 31 29 28 33 37 42 50 72 87 96 97 97 97 96 94 96 97 97 97 95 95 95 93 94 95 95 96 96 96 95 97 96 96 97 96 92 87 81 77 78 84 90 94
38 44 49 53 55 57 58 60 61 61 60 65 71 76 76 70 64 60 56 56 54 54 52 50 48 48 47 48 50 50 48 44 40 37 34 31 28 26 24 26 27 29 32 34 36 38 40 42 42 40 38 32 27 24 23 22 25 30 33 30 28 26 25 35 40 43 42 61 81 95 97 97 97 96 96 97 97 96 94 93 91 87 82 82 86 90 92 94 95 96 96 97 97 97 98 96 94 90 82 77 76 78 82
46 52 56 57 59 61 64 64 63 62 62 63 66 68 67 65 60 56 54 53 52 51 50 49 48 48 48 50 50 49 46 43 40 37 34 32 29 27 26 25 26 27 29 31 32 32 34 35 35 34 31 27 24 22 21 20 21 24 27 26 24 23 22 36 49 52 34 52 73 90 93 96 97 97 97 96 94 92 90 90 90 88 84 82 81 82 83 88 94 97 97 97 97 98 98 96 94 92 92 92 88 82 75
54 57 58 60 64 67 69 66 64 62 63 64 63 61 58 57 55 54 53 52 52 51 51 51 51 52 52 52 51 49 46 43 40 37 34 32 30 28 26 26 25 26 26 28 28 28 27 28 28 28 26 24 23 22 20 18 18 20 22 22 21 20 22 38 56 60 39 38 54 76 92 94 94 94 92 89 88 88 89 89 92 94 93 90 88 84 78 83 89 94 96 96 96 97 97 95 95 96 96 96 96 94 91
58 59 60 64 70 74 72 65 62 62 65 65 61 57 53 54 55 56 56 55 54 54 55 56 57 57 57 56 55 53 50 46 42 38 35 32 31 30 28 26 24 24 24 26 26 26 24 24 24 24 24 23 22 22 20 18 17 18 20 20 19 20 25 47 60 61 45 31 36 55 82 87 86 82 79 78 81 85 87 90 93 94 93 95 92 88 85 84 86 90 94 94 96 96 96 95 95 95 95 96 96 96 98
60 60 62 69 75 77 74 64 62 64 68 66 61 58 57 60 61 61 60 58 59 60 61 62 62 62 62 61 60 58 56 52 48 44 40 36 33 31 29 27 25 24 24 24 24 24 23 23 23 23 23 23 22 22 20 18 17 17 20 20 19 23 34 55 69 68 45 30 27 36 61 70 68 65 65 66 69 74 84 90 92 92 90 94 96 95 94 93 92 91 94 94 94 94 95 95 94 93 96 95 96 97 97
60 62 66 72 76 79 76 67 64 66 71 68 65 63 64 66 68 67 64 64 65 67 68 68 68 68 68 68 66 64 62 58 53 49 44 40 37 33 30 28 26 24 22 22 22 22 22 22 22 23 23 23 22 21 19 17 16 17 20 20 22 28 43 56 66 64 40 29 25 32 51 62 59 53 55 67 70 72 76 79 80 80 83 87 92 95 95 96 96 96 96 95 95 95 94 96 95 94 97 97 97 97 97
62 64 67 73 77 80 80 74 68 67 72 72 69 66 68 70 72 71 70 70 71 73 74 74 74 74 74 74 72 69 65 61 56 51 46 43 39 35 31 29 26 23 21 20 19 19 20 21 22 22 22 21 20 19 18 16 16 18 21 22 24 30 46 54 60 56 36 26 23 27 38 45 48 46 45 63 69 68 60 63 68 74 76 80 86 91 95 95 96 97 97 96 95 94 93 95 95 96 97 97 98 98 97
65 66 69 74 78 82 84 81 75 70 70 73 70 66 67 71 72 72 73 73 75 78 81 82 81 80 78 76 72 68 63 60 56 51 46 43 40 35 30 27 24 22 19 18 18 18 19 20 21 20 20 19 18 17 16 16 17 19 21 22 24 33 51 53 52 45 32 25 22 22 25 29 36 40 39 50 53 51 47 50 60 72 76 80 82 86 95 94 95 97 97 96 95 95 94 95 95 96 97 96 97 96 94
67 68 71 77 81 84 85 86 82 77 70 70 69 66 62 68 70 70 72 75 77 81 86 88 87 84 78 72 66 61 58 57 54 50 46 42 38 32 27 24 22 19 18 18 17 17 18 19 19 18 17 17 16 16 15 15 16 18 20 21 26 36 56 55 48 38 27 22 19 17 18 21 24 29 34 35 38 40 42 46 54 64 72 77 82 88 91 93 95 96 94 96 96 96 95 95 96 96 96 96 96 96 92
69 69 74 81 84 86 85 87 87 84 76 68 68 68 59 62 66 68 69 74 77 80 85 87 85 79 70 63 58 56 56 55 52 48 42 38 32 28 23 20 18 17 17 18 18 17 16 17 17 16 15 14 14 14 14 13 14 16 18 18 22 30 46 53 48 37 25 19 16 15 15 16 20 24 27 29 34 39 42 48 54 58 64 73 80 84 83 90 93 93 91 94 95 96 95 96 97 97 96 96 97 97 96
70 70 76 83 87 87 87 88 89 88 84 71 68 68 63 59 61 66 66 71 74 76 78 78 74 66 58 55 53 52 52 49 45 40 36 31 27 23 20 18 17 17 18 18 17 16 15 15 14 14 12 12 12 12 11 11 12 13 15 16 18 23 36 42 39 30 21 16 14 14 13 14 18 22 26 28 32 37 40 52 59 62 63 72 78 81 78 84 86 86 86 88 90 93 94 95 96 97 98 98 98 99 99
71 71 78 84 88 89 89 89 89 89 88 77 68 64 68 59 59 62 63 65 67 68 66 63 60 56 52 50 48 45 42 38 34 31 27 24 22 20 18 17 16 17 17 17 16 15 14 13 12 11 10 10 10 10 10 10 10 11 12 14 15 18 23 24 23 20 16 13 12 12 12 14 16 20 24 29 32 35 38 52 57 58 60 66 72 76 80 81 82 83 82 81 84 87 89 93 95 96 98 99 99 98 99
71 73 79 85 89 90 91 90 90 88 86 81 68 59 66 58 57 58 58 55 54 54 52 52 50 48 46 42 39 34 29 26 24 22 19 17 16 15 14 14 14 14 14 14 13 12 12 11 10 10 9 8 8 8 8 8 8 9 10 11 12 14 16 16 15 14 13 12 11 11 13 14 16 20 23 27 30 32 36 50 60 64 60 66 68 73 83 84 87 88 83 85 85 84 81 85 90 93 94 92 92 94 96
73 74 80 85 90 93 93 92 90 86 83 79 66 55 60 54 52 50 48 42 40 42 45 44 42 39 36 32 28 24 20 17 15 14 12 11 10 10 10 10 10 10 10 10 10 10 10 10 9 8 8 8 8 7 7 7 7 8 8 10 11 12 14 14 14 13 11 10 10 10 12 15 19 22 23 26 28 32 40 49 58 63 66 71 76 81 86 87 90 92 92 93 92 90 87 85 87 88 88 90 92 93 93
74 76 82 87 92 96 96 93 90 84 78 74 61 51 55 50 46 43 39 33 33 36 39 36 32 28 24 22 20 17 14 12 10 10 8 8 8 8 8 8 8 8 8 8 8 8 8 8 8 7 7 7 6 6 6 6 6 6 7 8 10 12 13 13 13 12 10 9 8 10 12 18 24 28 27 28 32 39 49 57 64 71 76 82 87 90 92 89 90 92 96 93 93 93 91 91 90 89 91 92 92 93 93
76 76 83 89 94 97 98 94 89 82 73 64 53 45 48 46 42 38 34 29 28 29 29 26 23 19 16 15 13 12 10 10 8 8 8 8 8 8 8 7 7 7 7 7 7 7 7 7 6 6 6 6 6 6 6 5 5 6 7 8 10 12 13 12 12 10 8 8 8 11 16 24 31 36 36 39 42 49 61 70 78 85 89 92 93 93 92 90 88 88 92 92 92 92 92 93 93 92 90 88 88 90 94
76 76 82 90 95 98 98 93 87 78 66 55 44 38 40 41 38 34 29 26 24 23 20 18 16 14 12 12 11 10 10 10 9 8 8 8 8 8 8 7 7 7 6 6 6 6 6 6 6 6 6 5 5 5 5 5 5 5 7 10 11 12 12 11 10 9 8 8 10 14 19 31 39 42 42 46 48 52 60 72 81 88 93 94 94 93 87 86 83 83 87 92 93 92 93 94 93 92 92 90 88 89 92
77 75 83 92 96 96 95 90 84 74 58 45 36 32 35 35 32 27 24 23 21 18 16 14 13 12 12 12 11 11 11 10 10 10 10 9 8 8 8 7 7 7 6 6 6 6 6 6 5 5 5 5 5 5 5 4 5 6 8 10 12 12 11 10 8 8 8 10 13 17 21 33 37 37 36 45 46 46 55 65 76 87 93 93 90 85 76 78 81 87 93 92 90 90 94 92 90 90 92 92 90 88 89
77 76 83 92 94 94 90 86 79 68 50 38 30 27 29 28 26 23 21 20 18 16 14 14 14 14 14 13 13 13 13 12 12 12 11 10 10 8 8 8 7 7 6 6 6 6 5 5 5 5 5 5 4 4 4 4 5 6 8 10 10 10 8 8 8 8 10 11 14 18 21 24 24 24 24 26 29 34 43 52 66 80 86 86 81 73 65 68 74 81 92 90 92 94 92 93 93 92 88 87 88 90 93
77 76 84 90 92 90 86 82 73 60 42 31 26 24 24 24 22 20 18 17 17 17 17 17 17 16 16 16 16 15 15 15 14 14 13 12 11 10 8 8 7 7 6 6 6 5 5 5 5 4 4 4 4 4 4 4 5 6 8 8 8 8 8 8 8 10 11 13 14 16 19 19 18 18 17 17 18 21 26 34 45 58 71 75 70 60 51 53 60 70 83 90 93 94 91 94 94 92 92 91 93 96 97
78 79 86 92 93 90 83 79 68 52 34 26 22 20 20 20 19 18 18 19 20 20 20 20 20 20 19 19 19 18 18 18 17 16 15 14 12 11 10 8 8 7 6 6 6 5 5 4 4 4 4 4 4 4 4 4 5 6 7 7 7 7 8 8 9 10 12 14 14 15 15 15 14 13 12 12 12 13 16 20 28 38 49 58 56 48 42 40 44 53 66 76 86 92 92 93 94 94 93 92 90 89 92
80 83 92 95 94 90 83 76 61 43 28 22 20 19 19 18 19 20 22 22 23 23 23 23 23 23 22 22 22 22 22 21 20 19 18 16 14 13 11 10 8 8 7 6 6 5 5 4 4 4 4 4 4 4 4 5 5 6 5 6 6 7 7 8 8 10 11 12 13 12 12 11 10 10 10 8 9 10 13 16 19 23 30 40 42 38 35 35 40 47 55 58 64 76 89 92 94 95 96 92 87 83 85
81 87 95 96 94 89 83 72 53 36 25 22 20 19 19 20 22 24 24 25 26 26 26 26 26 26 25 25 25 24 24 24 23 21 20 18 16 14 12 10 9 8 7 6 6 5 5 4 4 4 4 4 4 4 5 5 5 5 5 5 5 5 6 6 7 8 9 10 10 10 9 8 8 8 7 8 9 11 13 16 17 19 21 26 28 29 31 33 35 37 38 45 58 70 79 87 90 91 92 90 92 93 96
83 90 97 96 92 86 80 64 44 29 24 22 21 20 22 24 26 26 27 27 28 28 29 29 29 28 28 27 27 27 26 26 24 23 21 18 16 14 13 11 10 8 7 7 6 6 5 4 4 4 4 4 4 5 6 5 5 4 5 5 5 4 5 5 6 6 6 7 7 7 7 7 6 7 7 6 8 11 11 14 20 22 19 21 22 24 27 30 31 31 31 38 47 57 65 76 84 89 90 89 89 92 95
85 92 96 93 90 83 74 54 36 24 24 23 22 22 24 26 28 28 29 30 30 31 31 31 31 30 30 29 28 28 27 26 26 24 22 20 18 15 14 12 10 9 8 7 6 6 5 5 4 4 4 4 5 5 6 5 5 5 5 6 6 6 5 5 6 6 6 6 6 6 6 6 6 6 7 7 8 8 8 11 16 21 21 23 23 22 24 26 26 26 26 31 36 41 46 55 64 75 88 90 92 92 92
86 92 93 90 88 80 65 42 28 22 23 23 24 25 27 28 29 30 31 31 32 32 32 32 32 31 30 30 29 29 28 27 26 25 24 21 19 17 15 13 12 10 8 8 6 6 5 5 5 5 4 4 5 6 6 6 6 5 6 6 7 7 7 7 7 7 7 6 6 7 7 8 8 8 8 8 8 8 7 8 10 14 18 22 21 20 22 22 22 22 21 24 27 30 34 42 52 64 76 85 90 92 92
85 89 88 86 84 77 56 34 24 22 22 24 26 27 29 30 31 32 32 32 33 33 33 33 32 32 31 30 30 30 29 28 27 26 24 22 20 18 17 15 13 11 10 8 7 6 6 6 5 5 5 5 6 6 7 7 6 5 6 7 8 8 8 8 8 8 8 8 8 8 9 10 10 10 10 10 9 8 8 7 8 9 10 14 16 18 20 22 22 21 23 24 27 29 31 37 46 55 64 73 82 88 90
83 85 83 81 80 71 46 31 24 22 22 25 27 29 30 31 32 32 32 33 34 34 34 34 33 32 32 31 31 30 30 29 28 26 25 24 22 20 18 16 14 12 10 8 8 7 6 6 6 6 5 6 6 8 8 7 6 5 6 7 8 8 9 10 10 10 9 9 10 10 11 12 12 13 13 12 12 10 10 8 8 8 8 10 12 16 21 24 26 30 42 42 43 44 42 44 46 51 61 64 70 76 78
82 82 79 78 76 65 40 30 25 24 24 26 28 30 31 31 32 33 34 34 34 35 34 34 34 33 32 32 32 31 31 30 28 27 26 24 23 22 20 18 15 12 10 8 8 8 7 7 6 6 6 7 8 8 8 7 6 5 5 6 8 8 10 10 10 10 10 10 10 12 13 14 15 16 16 15 14 12 10 10 8 8 8 8 10 13 18 23 29 40 58 64 67 66 60 60 59 60 66 66 66 68 71
81 80 76 76 71 59 37 30 26 25 24 27 29 30 31 32 32 33 34 35 35 35 35 35 35 34 34 33 33 32 32 30 29 28 27 26 24 24 22 19 16 13 10 9 8 8 8 7 7 7 7 8 8 8 7 6 5 5 5 6 8 8 10 10 10 11 11 11 12 13 14 15 16 16 16 15 14 12 11 10 9 8 8 8 8 10 14 20 29 40 56 67 68 67 71 73 74 74 74 73 75 78 78
80 80 76 73 66 54 37 32 28 26 25 28 30 31 32 32 32 33 35 36 36 36 36 36 36 35 35 34 34 33 32 31 30 29 28 27 26 26 24 21 18 14 10 10 10 9 8 8 7 7 7 8 8 7 6 4 4 4 6 6 8 8 10 11 12 12 12 12 13 14 15 15 15 15 14 14 13 12 11 10 10 8 8 8 8 10 12 18 26 37 48 56 60 65 75 80 81 81 81 81 82 82 83
81 80 76 70 60 48 38 35 30 27 26 28 30 32 32 32 32 33 35 36 36 36 36 36 36 36 36 35 34 34 33 32 31 30 28 28 28 27 26 24 20 16 12 11 10 10 9 8 7 7 7 7 6 6 4 3 4 4 6 7 8 10 11 12 13 13 13 12 13 13 14 14 14 13 13 12 12 12 12 11 10 9 8 8 8 8 11 15 21 28 37 45 52 60 74 81 84 86 86 87 87 86 85
82 83 80 70 57 45 37 36 32 27 26 28 30 32 32 32 32 34 35 36 37 37 36 36 36 36 36 36 35 34 33 32 32 30 29 29 28 28 28 26 22 18 15 13 12 11 10 8 8 7 6 6 5 4 4 3 4 4 6 8 10 11 12 13 14 14 13 12 12 12 12 12 12 12 12 13 13 14 13 12 11 10 8 8 8 8 9 12 14 18 24 32 40 50 66 74 82 88 90 92 92 90 86
84 85 85 74 60 45 37 36 32 28 26 29 31 32 32 32 33 34 36 37 37 37 37 37 37 37 37 36 36 35 34 33 32 31 30 30 30 30 30 28 24 21 17 16 14 13 12 10 8 8 7 6 6 6 5 4 4 5 7 10 12 13 14 15 15 15 14 12 12 11 11 11 11 12 13 14 14 14 14 13 12 10 10 9 8 8 8 9 10 11 13 19 26 36 50 60 72 83 90 93 94 92 87
84 86 88 80 64 48 37 35 32 28 26 29 31 32 33 33 33 34 36 37 37 37 37 37 37 37 37 37 36 36 35 34 33 32 30 30 30 31 31 29 27 24 20 18 16 15 14 12 10 10 8 8 8 7 6 5 4 5 8 11 13 15 16 17 17 16 15 13 12 11 11 11 11 12 14 14 15 15 15 14 13 12 11 10 10 9 8 8 8 8 8 11 16 24 35 47 61 76 89 93 94 93 90
85 87 90 84 69 52 38 34 31 28 26 29 31 32 33 33 34 35 36 36 37 37 37 37 37 37 37 37 37 36 36 34 34 32 31 31 31 32 32 30 28 26 23 20 18 16 15 13 12 10 10 8 8 7 6 6 6 6 8 11 14 16 17 18 18 18 17 15 13 12 11 11 12 13 14 15 16 16 16 16 15 14 13 12 11 10 10 8 8 7 7 8 10 15 23 36 53 70 84 91 94 94 91
86 88 90 88 74 57 40 34 30 28 27 29 31 32 33 34 34 35 36 37 37 37 37 37 37 37 37 37 37 37 36 35 34 33 32 32 32 32 32 31 30 28 26 23 21 19 18 15 13 11 10 8 7 6 6 6 6 8 9 12 14 16 18 18 18 18 18 16 14 13 12 12 13 14 15 16 16 16 17 17 17 16 15 14 13 12 10 10 8 8 7 8 9 12 16 28 44 61 79 88 92 94 90
86 87 89 90 80 63 42 34 29 27 27 29 31 32 33 34 34 35 36 37 37 37 37 37 37 37 38 38 38 38 37 36 35 34 33 32 32 33 33 32 31 29 27 26 24 22 20 18 15 13 11 9 8 7 6 6 7 8 10 12 14 16 17 18 18 18 18 16 15 13 12 12 13 14 15 15 16 16 17 18 18 17 16 16 14 13 12 11 10 9 8 8 10 10 12 20 32 48 70 79 88 92 92
84 84 86 89 85 72 48 35 29 27 27 29 31 32 33 34 34 35 36 37 37 37 37 37 37 37 38 38 38 38 38 37 36 35 34 33 33 33 34 32 31 30 28 27 26 24 23 20 17 15 13 11 10 8 7 7 7 8 8 11 13 14 16 17 18 18 17 16 15 14 12 12 13 14 14 14 15 16 16 17 17 17 17 16 16 15 14 13 12 11 10 10 11 11 12 14 24 38 58 71 82 90 92
83 82 82 86 87 80 60 40 30 26 26 29 31 32 33 34 34 35 36 36 37 37 38 38 38 38 38 38 38 38 38 38 37 36 35 34 33 33 34 32 31 30 28 28 27 26 26 22 19 16 15 13 11 10 8 7 7 7 8 10 12 14 15 16 16 16 16 15 14 14 13 12 13 13 13 14 14 14 14 15 16 16 16 16 16 16 15 14 14 13 12 12 12 13 13 14 19 30 50 69 82 90 94
85 82 80 83 87 86 75 49 33 26 26 28 30 32 33 33 34 34 36 36 37 38 38 38 38 38 38 38 38 38 38 38 38 37 36 35 34 33 33 32 31 30 28 28 28 27 27 24 21 18 16 15 13 10 9 8 8 7 8 9 10 11 13 14 14 14 14 14 14 14 14 13 13 13 12 12 12 12 13 14 14 15 16 16 16 16 16 15 15 14 14 14 14 14 14 14 16 23 36 63 82 92 94
87 83 80 81 85 88 86 60 40 27 26 28 30 32 33 33 34 34 36 36 37 38 38 38 38 38 38 38 39 39 39 39 38 38 38 36 34 33 33 32 31 30 28 28 28 28 28 26 22 19 18 17 15 12 10 9 8 8 8 8 8 9 10 12 12 13 13 13 13 14 14 14 13 13 12 11 11 11 11 12 13 14 15 16 16 16 16 16 16 16 15 15 15 15 15 14 15 19 28 60 82 92 93
88 84 81 80 82 86 90 70 47 30 26 28 30 31 32 33 34 35 36 36 37 38 38 38 38 38 38 39 39 39 39 39 39 38 38 36 35 34 32 31 30 30 29 29 29 29 28 27 23 20 20 20 17 14 12 10 8 8 7 7 8 8 9 10 10 10 11 11 12 12 13 13 13 12 12 10 10 10 10 11 12 13 14 15 16 16 16 16 16 16 16 16 16 15 15 14 14 17 24 58 78 90 94
89 86 82 80 80 83 89 76 54 33 26 28 30 31 33 34 34 35 36 37 37 38 38 39 39 39 38 39 39 40 40 40 39 38 37 36 35 34 33 32 30 28 27 28 29 30 30 28 24 22 22 22 20 17 14 12 10 8 7 7 7 7 8 8 8 8 8 9 10 10 11 12 12 12 11 10 10 9 9 10 11 12 13 14 16 16 17 18 18 18 18 17 17 16 16 15 14 16 22 46 69 85 90
90 87 84 80 80 82 88 80 60 38 26 28 30 32 33 34 35 35 36 37 38 38 39 39 39 39 39 39 40 40 40 40 39 38 38 36 35 34 33 32 30 30 29 24 24 26 27 26 23 21 24 24 23 20 17 14 11 8 7 6 6 6 6 6 6 7 7 7 8 9 10 10 10 10 10 9 8 8 8 10 10 11 12 14 15 16 17 18 18 19 19 18 18 17 17 16 16 17 20 34 50 66 76
90 88 86 82 80 81 87 81 62 40 27 27 29 32 33 34 35 36 36 37 38 38 39 39 39 39 39 40 40 40 40 40 40 39 37 36 35 34 31 31 30 29 29 29 26 24 26 27 26 26 28 27 26 23 20 16 13 10 8 6 6 5 5 5 5 6 6 7 8 8 8 8 8 8 8 8 8 8 8 10 10 11 12 12 14 15 16 17 18 18 19 19 18 18 17 16 16 17 20 29 40 52 65
92 90 88 83 81 81 86 81 63 43 28 27 29 31 33 34 35 36 36 37 38 38 39 39 39 40 39 40 40 40 40 40 40 39 38 35 35 34 32 31 30 29 26 29 30 30 29 28 28 27 27 27 26 25 23 19 15 12 8 6 5 5 4 4 5 5 6 7 8 8 8 8 7 7 7 7 8 8 9 10 10 11 12 12 13 14 14 16 16 17 18 18 18 17 17 16 16 17 20 26 38 53 67
92 91 89 84 82 82 85 80 64 45 30 27 28 31 33 34 36 36 37 38 38 39 39 39 40 40 40 40 40 40 40 40 40 39 38 36 35 35 35 32 30 26 20 26 29 29 28 28 28 28 26 27 26 26 24 22 18 14 10 7 5 4 4 4 5 5 6 7 7 8 7 7 6 6 6 7 7 8 10 10 11 11 12 12 12 12 13 13 14 15 16 16 16 16 15 15 15 17 19 23 30 42 59
92 92 89 85 83 83 86 80 65 47 32 28 28 30 33 34 36 36 37 38 38 39 39 40 40 40 40 40 40 40 40 41 40 40 38 36 35 34 35 33 32 32 32 31 30 29 29 30 28 26 25 27 27 26 26 24 20 16 11 8 6 4 4 4 5 6 6 6 7 7 7 6 6 6 6 6 7 8 10 10 11 11 11 11 11 12 12 12 12 13 13 14 14 13 13 14 14 15 17 19 21 27 42
92 91 89 86 84 84 86 80 66 50 36 30 29 30 33 34 36 37 37 38 38 39 39 40 40 40 40 40 40 40 40 41 41 40 39 37 35 34 34 34 34 34 33 33 32 31 31 30 28 27 27 26 27 27 26 24 21 17 12 8 6 5 4 5 5 6 6 6 6 6 6 6 6 5 6 6 7 8 10 10 10 11 11 11 12 12 13 14 14 14 14 13 13 12 12 12 13 14 14 16 17 20 24
92 90 89 86 85 85 87 82 69 54 40 32 30 30 32 34 36 37 38 38 38 39 39 40 40 40 40 40 41 41 41 41 41 40 40 38 36 35 34 34 34 33 34 34 35 34 33 30 28 27 27 25 24 26 27 24 21 17 12 10 8 6 4 5 6 6 6 6 5 5 5 5 5 5 6 6 8 8 10 10 10 11 11 12 14 15 17 18 18 18 17 16 16 15 14 14 14 14 15 15 16 16 16
92 90 89 88 87 86 88 84 73 59 45 36 31 30 32 34 36 37 38 38 39 39 39 40 40 40 41 41 41 41 41 41 41 40 40 39 37 36 35 35 34 34 33 33 34 35 36 33 30 28 27 24 23 23 24 24 21 17 13 10 8 6 5 6 6 6 5 5 5 4 4 4 5 6 6 7 8 9 10 10 10 11 12 14 16 19 22 23 24 24 24 24 23 22 20 20 19 18 18 18 17 17 16
92 90 89 88 87 87 88 86 77 65 51 40 33 30 31 34 36 38 38 38 39 39 39 40 40 40 41 42 41 41 41 42 41 40 40 39 38 38 37 36 36 35 34 34 35 36 36 35 34 31 28 26 24 23 23 22 20 16 13 11 10 7 6 6 6 6 5 4 4 4 4 4 5 6 7 8 8 9 10 10 11 12 13 16 19 22 26 28 29 30 30 30 30 29 27 26 26 26 24 23 22 20 19
Wind_Speed
4 3 3 3 3 3 3 3 3 3 3 2 2 2 2 2 3 3 3 3 3 3 4 4 5 5 5 5 5 5 4 4 3 3 2 2 2 2 2 2 2 2 2 2 2 3 3 3 4 4 4 5 5 4 3 1 1 2 3 3 2 2 2 2 2 2 2 3 4 5 6 6 6 6 7 8 8 8 6 5 4 5 5 5 5 6 7 8 9 10 11 11 11 11 10 9 8 8 7 7 7 7 7
3 3 3 4 4 4 4 3 3 3 3 2 2 2 3 3 3 4 4 4 4 5 6 7 7 7 7 7 7 6 6 5 4 3 2 1 1 1 1 2 2 2 2 3 3 3 4 4 4 4 5 5 6 6 5 3 2 2 2 2 2 3 3 3 3 3 2 2 3 4 6 7 7 7 7 8 9 9 9 9 8 7 6 5 5 5 4 5 5 6 8 9 10 11 11 11 11 10 8 8 8 7 7
3 4 4 4 4 4 4 4 4 3 3 3 3 3 4 4 4 4 4 5 5 6 7 8 8 8 8 8 7 7 6 6 5 4 4 2 1 1 1 2 2 3 3 3 4 4 4 4 5 5 5 5 6 6 6 5 3 2 2 2 3 4 4 4 4 4 3 3 3 4 5 6 7 7 8 8 9 10 10 10 10 10 9 8 7 6 6 5 4 4 3 5 6 8 10 11 11 11 11 10 9 8 7
4 4 5 5 5 4 5 5 4 4 4 4 4 4 4 5 5 5 6 6 6 7 8 9 9 8 8 8 7 7 6 6 6 5 5 4 3 2 1 2 2 2 3 3 4 4 4 4 4 5 5 5 6 6 6 6 5 4 3 3 3 4 5 5 5 5 4 4 4 4 5 5 6 7 7 8 8 9 10 10 10 11 10 10 9 8 8 8 7 5 4 3 3 5 7 8 8 9 11 11 11 10 9
5 5 5 5 5 5 5 5 5 5 4 4 5 5 5 5 6 6 6 6 6 8 9 9 8 8 7 7 7 7 6 6 6 6 6 5 4 4 3 2 2 2 2 2 3 3 3 3 4 4 4 4 5 5 5 5 5 5 4 4 4 5 5 5 5 5 4 4 4 5 5 5 5 6 7 7 7 7 8 8 9 10 10 10 10 9 9 9 9 8 7 6 5 4 4 5 6 7 8 10 11 11 11
5 5 5 5 5 5 6 6 5 5 4 4 4 5 5 6 6 6 5 5 6 8 9 8 7 7 7 7 6 6 6 6 7 7 7 6 6 5 5 4 4 3 3 3 3 3 3 3 3 3 3 4 4 4 4 5 5 5 4 4 5 5 5 5 5 5 4 4 4 5 6 6 5 5 6 7 7 6 6 6 7 8 9 9 10 10 9 9 9 9 10 10 9 7 6 5 5 5 6 7 8 9 10
5 5 5 5 5 5 6 6 6 5 5 4 4 4 5 5 6 5 5 5 6 7 7 7 6 6 6 6 6 6 7 7 7 7 7 7 7 7 6 6 5 5 5 4 4 4 3 3 3 3 3 3 4 4 4 4 4 4 4 4 5 5 5 5 5 5 4 4 5 5 6 6 6 6 6 7 7 7 7 6 7 7 7 8 8 9 9 9 9 9 9 10 10 10 9 8 7 6 6 6 6 6 7
4 5 5 5 6 6 6 7 7 6 5 4 4 4 4 5 6 6 6 6 5 6 6 6 6 6 6 7 7 7 7 7 7 7 8 8 8 8 8 7 7 6 6 5 5 4 4 3 2 2 2 3 4 4 4 4 4 4 4 4 5 5 5 5 6 6 5 4 5 6 6 7 7 7 7 8 8 8 8 8 8 9 9 8 8 8 7 8 8 8 8 9 10 10 10 10 9 8 7 7 6 5 5
4 5 5 6 6 7 7 7 7 7 6 5 4 3 3 4 5 6 6 6 6 6 6 6 6 6 7 7 8 8 8 7 7 8 8 8 8 8 8 8 7 6 6 5 5 4 3 3 2 2 2 3 4 5 5 4 4 4 4 4 5 5 5 6 7 7 5 4 5 6 7 7 7 8 8 8 9 9 9 9 10 10 10 10 9 8 7 7 7 7 7 8 9 9 10 10 10 10 9 9 7 6 5
5 5 6 6 7 8 8 8 7 7 7 7 6 4 4 4 5 6 6 6 6 7 7 7 7 8 8 8 8 8 8 8 8 8 8 8 8 8 8 8 7 7 6 5 5 4 4 3 3 3 4 4 5 6 6 5 5 4 4 4 5 5 6 7 8 8 7 5 4 6 7 7 8 8 8 8 8 9 9 9 9 10 10 10 9 9 8 7 7 7 7 7 8 9 9 9 10 10 10 10 10 9 8
5 5 6 7 8 8 8 8 7 7 8 8 8 7 6 6 6 7 7 8 9 9 9 9 9 9 9 8 8 8 7 7 8 8 8 8 8 8 8 7 7 7 6 6 5 5 4 4 4 5 5 6 6 6 6 6 6 5 4 5 5 6 7 7 8 9 8 6 5 6 7 7 8 8 8 8 8 8 8 9 9 9 9 9 9 9 8 8 8 7 7 7 8 8 9 9 8 8 8 9 10 11 11
6 6 7 7 8 8 8 8 8 8 8 9 9 9 8 8 8 9 10 10 11 11 11 10 10 9 9 8 8 7 7 7 8 8 8 8 8 8 7 7 7 7 6 6 5 5 5 5 5 6 6 6 7 7 7 7 7 6 5 5 5 6 7 7 8 9 9 8 6 6 7 8 8 8 9 9 9 9 9 9 9 9 9 9 9 9 8 8 8 8 8 8 8 8 9 9 8 7 7 8 9 10 11
6 6 7 7 8 8 9 9 8 8 9 9 9 10 10 10 10 10 11 11 12 11 11 11 10 10 9 8 8 7 7 7 7 7 8 8 8 8 8 7 7 7 7 6 5 5 5 5 5 6 6 7 7 8 8 8 7 7 6 6 6 6 7 8 8 9 10 9 7 6 7 8 9 9 9 9 9 8 9 9 9 9 9 8 8 8 8 9 8 8 8 8 8 8 8 8 7 7 7 8 9 9 10
6 6 6 7 7 8 8 9 9 8 8 9 9 10 10 10 10 10 11 11 11 11 11 11 10 9 9 8 8 7 7 7 7 7 7 8 8 8 8 7 7 7 7 6 6 5 5 5 5 6 6 7 7 8 8 8 7 7 6 6 6 7 7 8 8 9 10 10 9 8 8 9 9 9 9 9 9 9 8 8 9 9 9 8 8 8 8 9 9 8 8 8 8 8 8 8 8 7 8 8 8 9 10
5 5 6 6 6 7 8 8 9 8 7 7 8 9 10 10 10 9 10 10 10 10 10 9 9 8 8 7 7 7 6 6 6 7 7 7 8 8 8 8 8 7 7 7 6 6 5 5 5 6 6 7 7 7 7 7 7 6 6 6 6 6 7 7 8 9 10 10 10 9 9 9 10 10 10 9 9 9 8 8 8 9 8 8 8 7 8 8 8 8 8 8 8 8 8 8 8 8 8 9 9 9 10
4 4 4 5 6 6 7 8 8 8 6 6 6 7 9 9 9 8 8 9 9 8 8 7 6 6 6 5 6 6 6 7 7 7 7 8 8 8 8 8 8 8 7 7 7 6 6 6 5 5 6 6 7 7 7 7 6 6 5 5 6 6 7 7 8 9 10 10 10 10 10 9 10 10 10 9 9 9 9 8 8 8 8 8 8 8 8 7 7 7 8 8 8 8 8 8 8 9 9 9 9 9 9
3 3 3 4 5 5 6 7 8 8 6 4 4 5 6 8 8 7 7 7 7 7 6 5 5 4 4 5 6 6 6 7 7 7 8 8 9 9 9 9 9 8 8 8 7 7 6 6 6 5 6 6 6 6 6 6 6 5 5 5 5 6 7 7 8 9 10 10 10 10 10 10 10 10 10 10 10 10 10 9 8 8 8 8 8 8 8 8 7 6 6 7 7 8 8 9 9 9 9 9 9 9 8
3 2 2 3 4 5 6 7 7 8 7 5 3 3 4 6 6 6 5 5 5 5 5 4 4 4 4 5 5 6 6 7 7 7 8 9 9 10 10 10 9 9 9 8 8 7 7 6 6 6 6 6 6 6 6 6 5 5 5 5 5 6 6 7 8 9 10 10 10 10 10 10 10 10 10 10 10 10 9 9 9 8 8 8 8 8 8 8 7 7 6 6 6 7 7 8 9 9 9 9 9 8 8
2 1 2 2 3 4 4 6 7 7 7 5 3 2 3 4 4 5 4 4 4 4 4 4 4 4 5 5 5 6 6 6 7 8 9 10 10 11 11 10 10 10 9 9 8 8 7 6 6 6 6 6 6 6 6 6 5 5 5 5 5 6 6 7 8 9 9 10 10 10 10 10 10 10 10 10 10 9 9 9 9 8 8 8 8 8 8 8 8 8 7 7 6 6 6 7 7 8 8 8 8 7 8
1 1 1 2 2 3 4 5 6 7 7 5 3 2 1 2 3 3 3 2 2 2 3 4 4 4 5 5 6 6 7 7 8 9 10 10 10 10 10 10 10 9 9 9 8 8 7 7 6 6 6 6 6 7 6 6 6 5 5 5 5 6 6 7 8 9 9 10 10 10 10 10 10 10 10 10 9 9 9 9 9 8 8 7 8 8 8 8 8 8 8 8 7 7 7 7 8 8 8 8 8 8 8
0 1 1 1 2 2 3 5 6 7 7 5 3 2 0 1 2 2 1 1 1 2 3 4 4 4 5 6 6 7 7 8 8 9 9 9 9 9 9 9 9 9 8 8 8 8 7 7 7 7 6 6 7 7 7 6 6 5 5 5 5 6 6 7 8 9 9 10 10 10 10 10 10 10 10 10 9 9 9 9 9 9 8 8 8 8 8 8 8 8 8 8 8 8 9 9 9 9 9 9 9 9 9
1 2 2 1 1 1 3 5 6 7 7 5 3 2 0 1 1 1 1 1 2 3 3 4 4 5 5 6 7 7 7 7 7 7 7 7 7 7 7 7 7 7 8 8 8 8 7 7 7 7 7 7 7 7 7 7 6 6 5 5 5 6 6 7 8 9 9 10 10 10 10 10 10 10 10 10 9 9 9 9 9 9 9 9 9 8 8 8 8 8 8 9 9 9 9 9 9 9 9 9 9 9 10
2 2 2 2 1 1 3 5 6 7 7 5 3 2 1 1 1 0 1 2 2 3 4 4 5 5 5 6 6 7 7 7 6 6 6 6 6 6 6 6 6 7 7 7 7 7 7 7 7 7 7 7 7 8 8 7 7 6 6 6 6 6 6 7 8 8 9 9 10 10 10 10 10 10 10 9 9 9 9 9 9 9 9 9 9 9 9 8 8 8 8 9 9 9 9 9 8 8 8 8 8 9 9
2 2 2 2 1 2 3 5 6 7 6 5 3 2 1 1 1 0 1 3 4 4 5 5 5 5 5 6 6 6 6 6 6 6 6 6 6 6 6 6 6 6 6 7 7 7 7 8 8 8 8 8 8 8 8 8 8 7 7 6 6 6 6 7 8 8 9 9 9 9 9 9 9 9 9 9 8 8 8 8 9 9 9 9 9 9 8 8 8 8 8 8 8 9 9 8 8 7 7 7 7 8 9
2 2 3 2 1 3 4 5 6 7 6 4 3 2 2 1 1 1 2 4 5 5 5 5 5 5 5 6 6 6 6 6 6 6 6 6 6 6 7 7 7 7 7 7 7 7 8 8 8 8 8 8 9 9 9 9 9 8 7 7 6 6 7 7 8 8 8 9 9 8 8 8 8 8 8 8 7 7 7 7 8 8 8 9 9 8 8 8 8 8 8 9 9 9 9 9 9 8 7 7 7 8 8
3 2 3 2 2 3 5 6 6 6 6 4 2 2 2 1 0 2 4 5 6 5 5 5 5 5 6 6 6 7 7 7 7 7 7 7 7 7 7 7 7 7 7 7 7 8 8 8 8 8 9 9 9 9 9 9 9 9 8 7 7 7 7 7 8 8 8 8 8 8 7 7 7 6 6 6 6 6 6 6 7 8 8 9 9 8 8 8 8 8 9 9 9 9 9 9 9 8 8 7 7 7 8
3 3 2 2 2 4 5 5 6 6 5 3 2 2 1 1 2 3 5 5 6 6 6 6 6 6 7 7 7 7 7 7 7 7 8 8 8 8 8 8 8 8 8 8 8 8 8 8 8 8 9 9 9 9 9 10 10 9 9 8 7 7 7 7 7 7 7 7 7 7 7 7 7 7 7 6 6 6 6 5 6 7 8 9 9 9 8 7 7 7 8 8 8 8 8 8 8 8 8 7 6 6 7
4 3 3 3 3 4 5 5 5 5 4 3 2 2 2 3 3 5 6 6 7 7 7 7 7 7 7 7 7 7 7 7 7 8 8 8 8 8 8 8 8 8 8 8 8 8 8 8 8 9 9 9 9 9 9 10 10 9 8 7 7 7 7 7 7 7 7 7 7 7 7 7 7 7 8 8 8 7 7 6 5 6 8 9 9 9 8 7 6 6 7 7 7 7 7 7 7 7 7 7 6 6 6
5 4 4 4 5 5 5 5 5 5 4 3 3 3 4 4 5 6 7 7 7 7 7 7 7 7 7 7 7 7 7 7 7 8 8 9 9 9 9 9 9 9 9 8 8 8 8 9 9 9 8 9 9 9 9 10 9 8 7 7 7 7 7 7 7 7 7 7 7 7 7 8 8 8 8 9 9 9 8 8 7 7 7 8 9 9 9 8 7 7 7 7 7 7 7 7 7 7 7 7 6 6 7
6 6 5 6 6 6 6 5 5 5 4 4 4 5 5 6 6 7 7 7 7 7 7 7 7 7 7 6 6 6 6 7 7 8 9 10 10 10 10 10 10 10 10 9 9 9 9 9 9 8 8 8 9 9 9 9 8 7 7 7 7 7 7 7 7 7 7 7 7 8 8 8 9 9 9 9 9 9 9 9 8 8 8 8 9 9 9 8 8 7 7 6 6 7 8 8 8 8 8 8 7 6 7
7 7 7 7 7 7 6 6 6 6 5 5 6 6 7 7 7 7 7 7 7 7 7 7 6 6 6 6 6 6 6 7 8 8 9 10 11 11 12 11 11 11 10 10 10 10 9 9 9 9 9 9 9 8 8 8 7 7 7 7 7 8 8 7 7 7 7 7 8 8 8 9 9 9 9 9 9 9 10 10 9 9 9 9 9 9 9 9 9 8 8 7 7 8 8 8 8 8 8 8 8 8 8
9 8 8 8 8 7 6 6 7 7 6 7 7 8 8 7 7 7 7 7 6 6 6 6 6 6 6 6 6 6 7 7 8 9 10 11 11 12 12 12 12 11 11 11 11 10 10 10 10 9 9 8 8 8 8 8 8 8 8 8 8 8 8 7 7 7 7 7 8 8 8 9 9 9 9 9 10 10 10 10 10 10 10 10 10 10 10 10 10 9 9 8 8 8 8 8 9 8 8 8 8 8 9
10 10 10 10 9 8 7 7 8 8 8 9 9 9 8 7 7 7 6 6 5 5 5 5 5 6 6 6 6 7 7 8 9 9 10 11 12 12 13 13 12 12 12 11 11 11 10 10 10 9 8 8 7 8 9 9 10 10 10 9 8 8 7 7 7 7 7 7 7 8 8 8 9 9 9 10 10 10 11 11 11 11 11 11 11 11 11 11 11 11 10 10 9 9 9 9 9 9 9 10 10 10 10
11 11 11 11 10 9 8 8 9 9 10 10 10 9 8 7 7 6 6 5 5 5 5 5 6 6 6 7 7 7 8 8 9 10 11 12 12 13 13 13 13 13 12 12 11 11 10 10 9 8 7 7 7 8 9 10 11 12 11 10 9 8 7 7 7 7 7 7 7 8 8 8 9 9 10 10 11 11 11 11 12 12 12 12 12 12 12 12 12 12 12 11 11 11 10 10 10 10 10 10 11 11 11
12 12 12 12 11 9 9 10 10 11 11 10 10 9 8 7 6 6 5 5 5 5 5 6 6 7 7 7 8 8 8 9 10 10 11 12 13 13 14 14 14 13 13 12 12 11 10 9 8 7 6 6 7 8 10 11 12 13 12 11 10 9 8 8 8 8 8 9 9 9 9 9 10 10 10 11 11 12 12 12 12 13 13 13 12 12 12 12 12 12 12 12 12 12 12 11 11 11 11 11 12 12 12
13 13 13 12 11 10 10 10 11 11 11 11 10 9 8 7 6 6 5 5 5 5 6 7 7 7 8 8 8 9 9 9 10 11 11 12 13 13 14 14 14 14 13 12 12 11 10 9 7 6 6 6 7 8 10 12 13 13 12 11 10 9 9 9 9 9 10 10 11 11 11 11 11 11 11 11 12 12 13 13 13 13 13 13 13 13 12 12 12 11 12 12 12 13 13 13 12 12 12 13 13 13 13
14 14 14 13 12 11 11 11 11 11 11 11 10 9 8 7 6 5 5 5 5 6 7 7 7 8 8 9 9 9 9 9 10 11 11 12 13 14 14 14 14 14 13 12 11 11 10 8 7 6 6 6 6 8 9 11 12 12 12 11 10 10 10 10 10 11 12 12 12 12 12 11 11 11 11 12 12 13 13 14 14 14 14 14 13 13 12 11 10 10 10 11 11 12 13 13 13 13 13 13 14 14 14
15 15 15 14 13 12 12 11 11 11 12 11 10 9 8 7 6 5 5 5 5 6 7 7 8 8 9 9 9 9 9 9 10 11 11 12 13 14 14 14 14 14 13 12 12 11 10 9 8 7 6 6 6 7 9 11 12 11 11 10 10 10 10 11 11 12 13 13 13 13 12 12 11 11 11 12 13 13 14 14 14 14 14 13 13 13 12 10 9 9 9 10 10 11 12 12 12 13 13 13 13 13 14
16 16 15 15 14 13 12 11 11 12 12 12 11 10 9 7 6 5 5 4 5 6 6 7 7 8 8 9 9 9 9 9 10 11 11 12 13 14 14 15 14 13 13 12 12 11 10 9 8 8 7 6 6 7 9 10 11 11 10 9 10 10 11 11 12 12 13 13 13 13 12 11 11 11 11 12 13 14 14 15 14 14 14 13 13 13 12 11 9 9 9 10 10 10 11 11 11 12 12 12 13 13 13
16 16 16 15 14 13 12 11 12 13 13 13 12 10 9 8 7 6 5 4 5 5 6 6 7 8 8 9 9 9 9 10 10 11 12 13 14 14 15 15 14 14 13 13 12 11 11 10 9 8 7 6 6 8 10 11 11 11 10 10 10 11 11 12 12 13 13 13 13 13 12 11 11 11 11 12 13 14 14 15 15 14 14 13 13 13 12 11 10 10 9 9 9 9 10 10 11 11 11 11 12 13 13
17 17 16 15 14 14 12 12 12 14 14 14 12 11 10 9 8 7 6 5 4 5 5 6 7 7 8 8 8 9 9 10 10 11 12 13 14 15 15 15 14 14 13 13 13 12 12 11 11 10 9 8 9 10 11 12 13 12 12 11 11 12 12 12 13 13 13 13 13 13 12 12 11 11 12 12 13 14 15 15 15 15 14 14 13 13 13 12 12 11 10 9 9 8 9 9 10 11 11 11 12 12 13
18 18 17 16 15 14 13 12 13 15 15 14 13 12 11 10 9 8 7 5 4 4 5 5 6 7 8 8 8 9 9 10 11 11 12 13 14 15 15 15 14 14 13 13 13 13 13 13 13 12 12 12 12 12 13 14 14 14 14 13 13 12 13 13 13 14 14 14 14 13 13 13 12 12 12 13 13 14 15 15 16 16 15 15 14 14 13 13 13 12 11 10 9 8 8 8 9 10 10 11 11 12 13
19 19 18 16 15 14 14 14 15 16 16 15 14 12 11 10 10 9 7 6 4 4 4 5 6 7 7 8 8 9 9 10 11 12 12 13 14 14 15 15 14 14 13 13 13 14 15 15 15 15 15 15 14 14 15 15 15 15 15 14 13 13 13 13 13 14 14 14 14 14 14 14 13 13 13 13 14 14 15 16 16 17 16 16 15 14 13 13 13 12 11 10 9 8 7 7 8 9 10 10 11 12 12
20 19 18 17 16 15 14 15 16 17 17 16 14 13 12 11 10 9 7 6 4 3 3 4 6 6 7 7 8 8 9 10 11 12 12 13 14 14 15 15 14 14 13 13 13 14 16 17 17 18 18 17 16 15 16 16 16 15 14 14 13 13 13 13 13 14 14 14 14 15 15 14 14 14 14 14 14 14 15 16 17 17 17 16 16 15 14 13 12 11 11 10 9 8 7 7 8 9 9 10 10 11 11
20 20 19 18 16 15 15 16 17 18 18 17 15 14 12 11 10 9 7 6 4 3 3 4 5 6 6 7 8 8 9 10 11 12 12 13 14 14 14 15 14 14 13 13 14 15 16 18 19 19 19 18 17 16 16 16 15 15 14 13 13 12 13 13 13 13 14 14 15 15 15 15 14 14 14 14 14 15 15 16 16 17 17 17 16 15 14 13 12 11 10 10 9 7 7 7 8 8 9 9 9 10 9
21 21 21 19 18 16 16 17 18 19 19 17 16 14 13 12 11 9 8 6 5 3 2 3 4 5 6 6 7 8 9 10 11 12 12 13 13 14 14 14 14 14 13 13 14 15 17 18 19 19 19 18 17 17 16 16 15 15 14 13 12 12 13 13 13 13 14 14 15 15 15 15 14 14 14 14 14 15 15 16 16 16 16 16 15 15 14 13 13 12 11 10 9 8 7 7 7 8 9 8 9 9 9
22 22 21 20 19 17 16 17 19 20 19 18 17 15 14 12 11 10 9 7 5 3 2 2 3 4 5 6 6 7 8 9 10 11 12 12 12 13 13 14 14 14 13 13 14 15 17 18 19 19 18 18 17 17 16 16 15 14 13 12 12 13 13 13 13 14 14 15 15 15 15 14 14 14 14 14 14 14 15 15 15 15 15 15 14 14 13 13 13 12 11 11 10 9 8 7 7 7 8 8 9 9 9
22 22 22 21 19 18 17 18 20 21 20 19 17 16 14 13 11 11 10 8 6 3 2 1 2 3 4 5 6 7 7 8 9 10 11 11 12 12 13 13 14 14 13 13 14 15 17 18 19 19 18 18 17 16 16 15 15 14 13 13 12 13 13 13 14 14 15 15 15 15 15 14 14 13 13 13 13 14 14 14 14 14 14 13 13 13 13 12 12 12 11 11 10 10 9 8 7 7 8 9 9 10 10
24 23 22 22 21 20 18 19 20 21 21 20 18 16 15 13 12 12 11 9 7 4 2 1 1 2 3 4 5 6 7 7 8 9 10 11 11 12 13 14 13 13 12 12 13 15 17 18 19 18 17 17 16 16 15 15 14 14 13 13 13 12 13 13 14 14 15 15 15 15 15 14 14 13 12 12 12 13 13 13 13 13 12 12 12 11 11 11 11 11 11 11 10 10 9 9 8 7 7 9 10 11 11
25 24 24 23 22 21 20 20 21 22 22 20 18 17 16 15 14 13 12 10 7 4 3 1 0 1 3 4 5 5 6 7 8 9 10 11 11 12 13 13 13 12 11 11 12 14 16 17 18 17 16 16 15 15 15 14 14 13 13 13 13 13 13 13 13 14 14 15 15 15 15 14 14 13 12 12 12 12 12 12 12 11 11 11 10 10 10 10 10 10 10 10 10 9 9 9 8 8 8 9 10 11 11
27 26 25 24 23 22 21 21 22 23 23 21 20 19 18 16 15 14 13 10 7 5 3 2 1 1 2 3 4 5 5 6 7 9 10 11 12 12 12 12 12 12 11 10 11 13 15 17 17 16 14 14 15 15 14 14 13 13 13 13 13 13 13 13 13 13 14 14 14 14 14 14 13 13 12 12 11 11 11 11 11 10 10 10 10 9 9 9 10 10 10 9 9 9 9 9 9 9 9 10 11 11 12
28 27 26 25 24 23 22 22 23 24 24 23 21 20 19 17 16 14 13 11 8 6 4 3 2 1 2 2 3 4 5 6 7 8 9 11 12 13 14 13 10 9 10 10 10 11 13 16 16 14 12 13 14 14 14 14 14 13 13 13 13 12 12 12 12 12 13 13 13 13 13 13 13 13 12 12 11 11 10 10 9 9 9 9 9 9 9 9 9 9 9 9 9 9 9 9 10 10 10 11 11 12 13
28 28 27 26 25 23 22 23 24 25 25 24 23 21 20 18 16 15 13 11 8 7 5 4 3 2 2 2 3 4 4 6 7 8 9 10 11 13 14 12 9 7 8 7 7 8 10 14 15 13 11 13 14 14 14 14 14 14 13 13 12 12 12 12 12 12 12 12 12 12 11 12 12 12 13 13 12 11 10 9 8 8 8 8 8 9 9 9 9 9 9 9 9 9 9 10 10 11 12 12 12 13 13
29 28 27 26 25 24 23 24 25 26 26 25 23 22 20 18 17 15 13 11 9 8 7 5 4 3 2 2 3 3 4 5 6 7 8 9 11 12 12 11 9 8 8 8 6 5 9 15 14 11 12 15 16 15 15 14 14 14 13 13 12 12 12 12 12 12 12 12 12 11 11 12 12 13 13 13 13 12 11 10 8 8 7 8 8 8 9 9 9 9 9 10 10 10 10 11 11 12 13 14 14 14 14
29 29 28 27 26 25 24 24 25 27 27 26 24 22 21 19 17 15 14 12 10 9 8 6 5 4 3 3 3 4 4 5 6 7 8 9 10 11 11 12 11 10 8 8 7 6 10 16 17 14 13 16 17 17 16 15 15 14 14 13 13 13 13 13 13 13 12 12 12 12 12 12 13 13 13 13 13 13 12 11 9 8 8 8 8 8 8 9 9 9 10 10 10 10 11 12 13 14 15 15 16 16 16
30 29 28 27 26 25 24 24 26 27 27 26 25 23 21 19 17 16 14 13 11 10 9 7 5 4 3 3 3 4 4 5 6 7 8 8 9 10 11 11 10 7 4 6 7 10 12 17 17 14 13 16 17 16 17 16 16 15 15 14 14 13 14 14 14 13 13 12 12 12 13 13 13 13 13 13 13 12 12 11 10 10 9 9 9 9 9 8 9 9 9 10 10 11 12 13 14 15 16 17 17 17 17
31 30 29 28 27 25 25 25 26 27 27 27 25 24 22 20 18 17 15 14 12 11 10 8 6 5 4 4 4 4 5 5 6 7 7 8 9 10 11 11 10 8 5 6 8 12 16 20 15 10 12 17 18 17 18 18 18 17 16 15 15 15 14 14 14 14 13 13 12 12 13 13 14 14 14 13 13 12 12 11 11 11 11 11 11 10 10 9 9 9 9 10 11 11 12 14 15 16 17 18 19 19 19
31 31 30 29 27 26 25 25 26 27 27 27 26 24 23 21 19 18 16 15 13 12 11 9 7 5 4 4 4 5 5 6 6 7 8 8 9 9 10 11 12 13 12 11 12 14 16 19 17 14 15 17 19 20 20 20 19 19 18 17 16 16 15 15 14 14 13 13 13 13 13 13 14 14 14 13 13 12 12 12 12 12 12 13 13 13 12 12 12 11 11 12 12 13 14 15 16 17 18 19 20 21 21
32 31 31 29 28 27 26 25 26 26 27 27 27 25 24 22 20 18 17 15 14 13 12 9 8 6 5 4 5 5 5 6 6 7 8 9 9 10 11 11 12 13 14 15 16 17 17 16 17 17 15 14 17 20 23 21 20 20 20 19 18 17 16 15 14 14 13 13 14 14 14 14 14 14 14 13 13 13 12 12 12 13 13 13 14 14 14 14 14 14 14 15 15 15 16 17 17 18 19 20 21 22 23
32 31 31 29 28 27 26 26 25 26 27 27 27 26 25 23 21 19 18 17 16 14 12 10 8 7 6 5 5 5 6 6 6 7 8 9 9 10 11 12 12 13 13 15 16 18 19 18 19 18 15 15 17 20 22 22 22 22 21 20 20 19 17 16 15 14 14 14 14 15 15 15 15 14 14 13 13 13 13 13 13 13 13 14 14 14 15 15 16 16 16 17 17 18 18 19 19 20 21 21 22 23 24
32 32 31 30 28 28 27 26 26 26 27 28 28 27 25 23 21 20 19 18 17 15 13 11 9 8 7 6 6 6 6 6 7 7 8 9 9 10 11 12 13 14 15 16 17 18 19 20 21 20 19 20 21 21 22 23 23 23 22 22 21 20 18 17 16 16 15 15 15 15 16 16 15 14 14 13 13 13 13 13 13 13 13 13 14 14 14 15 16 16 17 18 18 19 20 21 21 22 23 23 24 24 25
Wind_Direction
119 109 95 79 68 61 56 49 40 34 30 33 36 35 27 27 23 17 12 8 9 17 28 38 49 57 64 74 84 92 98 103 109 117 128 142 152 162 176 188 205 220 237 255 271 284 296 306 314 318 317 315 314 313 315 348 64 60 46 32 16 355 336 336 345 2 29 40 32 17 3 359 356 353 352 348 344 343 346 351 349 347 353 359 2 1 359 359 357 355 354 351 350 350 351 352 355 358 359 359 357 357 357
105 87 75 68 61 56 50 41 34 31 30 31 31 29 29 32 33 27 18 21 26 35 44 50 53 55 57 62 69 77 83 88 92 95 97 106 140 194 224 242 253 262 269 276 282 291 299 307 315 319 323 325 325 326 328 341 30 65 52 17 337 313 304 308 317 325 334 358 18 18 7 357 351 350 349 346 343 343 346 346 344 341 340 339 341 343 346 352 354 354 354 349 346 345 345 345 345 347 350 354 358 0 0
88 75 67 63 58 53 45 37 32 33 41 45 47 47 47 50 50 46 39 37 40 48 54 56 56 54 53 54 56 60 65 70 74 77 77 73 64 14 300 289 287 289 291 294 297 300 305 310 314 319 325 332 336 336 336 341 356 19 17 341 312 302 302 307 312 316 318 327 355 12 9 356 348 346 347 342 340 342 345 347 344 340 338 336 335 332 328 327 330 336 342 343 343 343 343 342 341 340 340 343 349 355 359
81 70 64 59 55 50 42 36 33 35 45 55 60 61 62 64 62 57 54 44 44 52 58 59 58 55 52 51 51 51 53 56 60 64 66 65 60 42 11 338 323 316 313 311 311 312 314 316 317 321 329 340 345 343 341 342 347 355 354 337 316 312 313 316 317 317 319 330 347 358 3 355 347 343 341 336 335 338 341 343 340 336 335 334 334 332 330 327 324 320 311 311 326 338 337 337 337 337 335 336 338 342 347
78 70 62 57 51 46 41 37 35 37 48 59 65 68 67 65 65 63 58 47 45 52 59 60 58 56 54 54 53 51 50 51 54 57 60 62 60 56 44 29 14 3 354 345 337 333 330 328 328 332 343 353 353 349 346 348 352 356 354 344 334 331 329 329 327 325 330 345 348 345 346 345 343 337 328 325 326 328 331 335 333 331 330 330 330 329 329 327 326 325 321 313 311 314 317 320 325 328 328 331 333 335 338
77 70 62 55 49 44 43 40 40 42 49 59 64 64 64 60 59 59 56 49 47 51 56 57 57 57 57 58 59 58 56 55 56 57 59 60 61 59 56 49 44 39 35 28 19 10 1 356 353 358 5 5 359 355 357 3 6 6 1 353 347 345 342 341 340 342 352 359 354 342 336 335 331 323 315 314 312 310 313 316 316 317 322 323 324 325 325 323 323 326 326 324 321 317 309 301 305 313 314 319 325 330 332
77 69 60 55 50 47 47 46 46 47 52 62 64 57 48 48 47 43 37 39 42 47 52 53 55 58 62 66 68 67 64 62 62 61 61 60 59 58 56 54 51 49 47 45 43 37 31 25 21 19 15 6 357 358 10 18 23 20 11 1 356 352 348 351 355 0 9 7 355 342 335 330 321 312 307 308 305 301 299 292 290 294 301 307 311 316 319 319 322 324 325 325 326 325 320 312 306 301 299 305 311 317 323
76 66 59 55 53 51 50 49 47 47 51 62 66 54 32 31 33 32 28 30 37 44 52 54 58 65 71 75 76 74 72 69 67 65 62 59 57 55 53 51 49 48 48 47 47 46 42 38 31 23 10 355 353 359 13 26 35 32 18 4 357 353 350 356 3 10 15 4 351 341 335 328 321 313 305 302 302 301 296 291 287 284 283 286 293 300 306 312 316 320 321 320 321 322 321 319 316 310 303 303 304 307 310
71 64 61 59 58 55 52 50 47 46 48 56 62 59 38 30 31 33 33 35 41 49 57 60 66 73 78 81 81 78 75 72 68 65 61 57 54 51 49 46 44 42 42 41 40 39 36 28 19 1 350 350 354 359 7 21 32 32 17 0 352 351 354 3 5 6 10 10 355 343 337 330 322 315 307 302 301 301 300 300 295 288 283 282 284 287 291 295 302 307 309 310 310 311 313 316 317 318 318 317 315 310 299
71 67 66 65 62 58 54 51 48 49 53 58 61 57 48 43 43 46 50 54 59 62 65 67 71 76 80 81 80 78 74 70 65 61 56 52 49 46 45 42 40 37 34 31 28 24 18 7 356 349 349 353 357 358 358 6 16 20 8 353 348 352 0 8 3 356 353 356 352 344 338 331 321 314 311 311 308 306 307 309 307 303 298 294 291 288 284 284 286 290 291 293 296 299 303 307 312 317 324 327 326 321 313
76 74 73 69 65 60 56 54 53 57 64 68 69 67 63 62 61 64 68 72 73 72 71 71 72 74 76 76 75 73 69 64 58 53 48 43 40 39 39 37 35 31 27 21 15 10 4 358 354 353 354 356 355 354 352 355 1 6 359 349 347 354 2 9 359 346 341 343 345 342 338 328 318 313 316 318 318 318 317 317 318 318 315 311 307 301 291 285 283 282 281 282 285 290 294 297 302 310 320 324 323 321 319
83 81 78 72 66 61 58 56 59 66 74 78 77 73 70 70 72 76 79 80 79 76 73 71 70 70 69 68 66 64 59 54 49 44 39 34 30 28 28 29 29 26 21 15 9 3 359 357 356 356 355 353 351 348 346 348 351 356 353 347 348 355 2 2 353 340 334 334 336 337 334 322 314 312 314 317 321 323 322 322 322 321 318 319 317 313 306 297 291 287 283 281 281 283 287 291 295 303 311 311 309 308 309
89 84 78 72 66 61 59 59 64 73 81 82 79 75 73 74 78 81 83 82 79 76 72 69 67 65 63 60 58 54 51 46 40 35 30 25 20 17 17 18 20 18 15 11 6 3 359 359 358 356 354 350 346 344 342 342 346 349 348 345 349 357 1 357 347 337 330 331 333 333 329 319 313 312 313 316 318 320 321 321 320 317 316 319 320 320 317 314 309 303 297 291 286 283 285 288 291 294 297 295 295 295 297
90 83 77 70 65 62 60 60 65 74 82 83 80 77 77 78 80 82 83 81 78 73 70 67 65 62 59 56 52 48 45 41 34 27 21 17 12 9 8 8 8 8 7 5 4 3 1 0 359 356 353 347 342 338 337 340 343 345 343 344 350 357 359 353 343 333 328 330 333 333 329 323 318 317 319 322 321 318 316 314 312 311 313 317 320 322 323 322 320 318 314 310 304 297 295 294 293 289 285 284 285 289 292
87 79 71 66 63 62 60 60 62 69 78 82 81 80 80 79 80 81 81 78 74 71 67 65 62 59 55 50 44 40 37 34 28 20 14 9 5 2 0 359 359 358 358 358 1 3 3 2 0 356 352 345 339 336 336 339 342 342 339 342 349 356 356 347 338 331 329 331 333 332 329 323 321 322 324 326 323 316 311 311 312 313 315 317 319 321 322 321 321 322 322 323 320 315 308 304 299 292 287 283 283 285 288
82 73 65 62 61 61 60 58 56 59 66 74 79 80 81 80 80 79 78 76 73 69 65 61 56 49 41 31 25 25 26 26 22 15 8 2 358 355 353 353 351 350 351 353 356 359 1 2 0 356 350 344 339 335 336 339 340 339 336 339 345 352 353 342 334 330 329 332 333 332 328 325 324 326 326 325 322 318 316 317 318 320 321 320 319 317 318 317 317 318 320 322 323 322 318 312 306 300 296 291 290 291 292
76 68 63 60 61 61 59 55 51 48 48 55 68 77 79 80 80 79 79 77 73 68 63 58 47 31 16 8 11 17 21 20 13 6 359 354 351 349 347 346 346 346 347 350 352 355 357 359 358 354 349 343 338 335 336 338 339 336 334 337 343 346 346 339 331 328 330 332 332 330 329 328 328 328 326 325 324 324 324 325 326 326 326 323 319 315 312 313 313 311 310 311 315 317 316 315 312 310 308 306 304 304 307
66 66 67 66 63 62 57 51 45 40 34 33 42 65 76 79 80 80 81 81 75 68 59 51 37 20 13 14 18 19 17 11 2 354 349 346 344 343 342 343 343 344 345 347 348 350 351 354 354 352 347 342 337 333 333 336 336 334 332 335 339 342 340 335 330 328 330 330 330 329 330 330 329 329 328 326 326 326 327 329 330 329 327 323 319 314 309 311 310 304 298 295 296 300 304 308 310 310 311 310 309 310 311
57 68 80 77 71 62 52 44 39 34 26 19 18 42 71 78 79 79 83 87 80 66 52 44 34 22 19 20 19 14 7 358 348 342 339 338 337 337 338 339 340 342 343 343 344 345 346 348 348 347 343 338 334 331 331 334 334 332 331 331 334 335 334 331 330 329 328 328 329 329 329 329 328 328 327 327 326 326 328 330 329 328 328 323 320 317 313 313 309 301 294 287 280 278 284 290 291 292 293 293 291 291 294
61 100 113 100 85 63 42 31 27 25 20 11 5 12 65 81 79 78 84 96 87 57 47 43 35 24 18 14 8 2 355 347 340 336 334 333 333 333 334 336 337 338 339 339 339 340 341 342 343 341 338 334 331 329 329 332 332 331 329 329 330 330 329 328 328 327 327 328 328 329 329 328 327 326 326 326 326 326 328 330 330 330 334 327 322 321 320 317 311 305 299 293 285 276 273 277 276 275 278 277 275 275 279
158 186 166 134 103 63 29 14 12 12 11 4 354 348 62 97 88 80 86 107 92 60 49 40 29 17 11 5 359 353 349 345 341 338 336 334 332 332 332 334 335 336 336 335 335 335 336 337 336 335 333 329 328 327 327 330 331 331 330 328 327 327 326 327 327 326 326 327 328 329 329 327 326 326 326 327 327 328 332 335 337 340 341 335 330 328 327 324 318 313 309 307 302 291 280 280 281 282 284 279 276 277 278
198 201 191 169 131 52 7 358 356 357 359 355 345 328 261 146 115 94 83 96 79 62 47 31 20 13 7 2 356 352 352 351 349 347 345 342 340 338 337 337 337 337 335 334 332 332 332 331 331 329 327 326 325 325 326 328 330 333 332 329 328 326 326 326 326 326 325 327 328 328 327 326 327 328 328 330 332 336 342 346 348 348 345 340 336 335 333 328 324 322 320 319 316 310 302 294 293 295 294 292 290 288 286
206 203 197 191 178 351 339 341 342 345 348 347 337 315 263 194 156 96 72 69 62 50 37 25 18 15 12 7 3 2 3 5 6 4 1 356 352 350 347 345 343 340 337 334 332 330 329 327 326 325 324 324 324 325 325 327 331 333 333 331 328 327 326 326 325 325 325 327 328 328 327 328 331 334 334 337 341 347 352 353 353 351 347 343 340 337 334 327 323 322 323 320 318 316 313 308 305 304 302 303 303 300 295
216 201 190 195 237 308 319 327 331 334 338 338 330 305 258 222 202 73 57 57 53 47 41 33 26 22 21 18 17 18 18 19 19 17 12 6 1 358 354 351 347 343 339 335 331 328 326 324 323 322 322 323 324 324 324 327 329 332 334 332 330 327 326 325 325 325 326 328 328 328 330 335 340 343 343 346 350 354 357 356 353 350 347 345 340 335 330 325 321 321 324 321 318 316 316 315 310 305 304 306 303 300 300
227 198 178 188 250 293 308 317 322 326 328 328 321 294 260 233 227 54 58 58 57 56 53 49 44 39 36 33 31 30 28 26 25 22 19 14 9 3 359 355 350 345 340 335 331 327 323 322 322 321 322 323 323 323 323 325 328 331 333 332 330 328 326 326 326 328 329 331 331 331 334 344 349 348 347 350 352 355 359 358 353 349 347 344 339 333 326 325 324 325 327 329 327 325 324 324 321 317 313 310 307 307 311
240 204 178 191 246 284 300 308 314 317 318 318 308 280 257 228 129 75 73 71 70 69 68 65 60 54 49 45 41 38 34 31 29 26 23 20 15 9 2 357 353 348 343 337 332 328 324 322 321 321 321 322 322 321 321 323 327 331 333 333 331 330 328 330 332 335 336 337 336 335 337 347 348 344 344 346 346 349 355 353 350 348 346 342 336 330 325 328 333 336 337 337 334 333 333 333 331 327 323 320 318 318 318
245 218 196 211 253 280 294 301 305 307 306 304 284 249 223 165 114 96 91 88 85 82 78 72 67 62 57 52 48 44 39 35 33 30 27 24 19 13 7 2 357 352 346 340 334 329 325 323 321 320 321 321 320 319 320 323 328 332 334 335 334 334 335 339 342 344 345 344 342 339 337 337 336 335 335 335 337 339 342 342 343 343 342 337 329 323 323 329 333 336 339 338 338 337 335 333 332 329 325 321 317 316 313
242 228 219 239 264 280 290 295 295 293 291 278 248 209 177 149 127 112 104 99 93 87 81 75 70 65 61 56 53 48 43 39 36 34 31 28 24 19 14 8 2 356 350 343 337 332 328 324 322 321 321 320 319 318 320 325 331 336 338 340 340 342 344 348 351 352 351 348 344 339 336 333 333 333 332 331 330 330 330 330 328 330 334 331 323 316 316 321 324 326 331 334 337 335 330 327 324 322 321 318 316 314 311
237 230 229 245 263 276 285 285 282 276 265 244 215 187 163 150 136 123 111 102 96 89 83 77 71 67 62 59 54 50 45 40 37 35 33 30 27 24 20 15 9 3 357 350 343 336 331 327 324 323 322 321 320 321 325 332 339 344 347 349 350 350 351 354 355 355 352 348 343 337 334 332 332 332 331 331 330 328 326 324 321 320 324 324 320 315 313 314 316 319 321 324 329 331 327 326 326 325 322 320 315 310 311
231 228 230 243 256 267 274 271 265 255 237 212 191 177 164 151 137 123 112 104 97 91 85 78 72 67 63 58 54 49 44 38 36 34 32 30 29 26 23 19 14 8 2 355 349 342 336 332 329 327 326 325 325 329 337 346 354 359 2 1 359 356 355 355 355 353 350 344 339 335 332 332 331 331 331 331 330 329 327 325 323 320 319 320 317 314 315 314 313 313 315 312 315 321 325 325 326 326 325 325 315 303 305
226 224 227 238 249 257 259 254 246 236 217 195 180 172 165 151 135 122 113 107 100 94 87 81 74 68 62 56 50 45 40 35 34 33 32 31 29 28 25 21 16 11 5 359 353 347 342 338 335 334 334 334 337 345 356 8 16 19 16 10 4 359 356 354 352 349 345 341 337 334 333 333 333 333 333 333 332 330 329 327 325 323 320 319 317 316 316 315 312 308 307 307 309 314 317 320 320 320 321 321 317 312 309
222 219 224 233 241 247 244 237 231 222 202 184 174 168 161 147 133 123 115 110 104 98 91 84 76 68 59 52 46 42 38 36 35 34 34 33 31 29 27 23 19 13 8 2 356 350 346 342 340 339 342 347 356 9 21 29 31 28 22 15 8 2 357 354 351 347 344 340 338 336 335 336 335 336 336 335 334 332 330 328 328 327 322 320 318 317 316 315 313 310 307 306 306 306 308 311 314 315 316 314 310 308 308
218 217 223 230 237 238 231 222 216 207 191 179 171 165 157 146 135 128 122 116 109 101 93 84 75 65 57 51 46 42 40 37 36 35 35 34 33 31 29 26 22 17 11 5 358 352 348 344 343 345 352 5 21 32 35 33 29 24 21 17 13 8 3 359 356 353 349 346 344 343 341 340 340 340 339 337 334 332 329 326 325 324 322 321 318 316 314 313 312 311 309 308 305 301 299 299 301 307 313 313 310 307 307
215 216 222 229 234 232 220 210 203 196 184 176 170 164 156 148 141 134 128 122 115 105 93 82 73 64 56 51 47 44 41 39 37 37 37 36 35 33 30 27 24 20 15 8 2 356 351 347 347 353 6 27 40 40 33 25 20 17 16 16 15 14 12 9 6 2 359 357 355 352 349 347 345 343 341 337 333 329 326 323 320 318 318 318 315 313 312 312 311 311 310 310 307 304 300 297 296 300 306 309 310 309 307
213 216 221 226 229 225 211 200 194 189 182 177 171 164 158 153 147 140 133 127 117 104 91 80 70 62 56 51 48 46 43 41 39 38 38 38 36 34 31 29 26 22 18 12 6 0 356 352 355 6 26 44 45 36 24 17 12 10 10 11 13 15 15 14 12 9 6 5 2 360 356 353 350 346 342 337 332 327 323 320 317 315 314 313 311 311 311 311 311 312 313 314 312 309 306 303 301 300 300 302 305 307 306
213 216 220 224 224 218 204 194 189 187 183 180 174 168 162 158 152 145 138 130 116 101 87 76 67 60 55 52 49 47 45 42 41 40 40 39 37 35 33 30 28 25 21 16 11 6 3 1 6 21 41 48 41 27 17 11 6 4 4 6 9 13 13 13 11 10 8 7 5 3 0 357 353 349 343 337 332 327 324 321 318 317 314 312 311 311 312 313 314 316 319 319 317 314 311 309 306 305 304 302 303 304 303
213 217 220 221 220 213 200 190 187 188 188 184 178 172 168 164 158 150 142 130 113 97 84 74 65 59 55 52 50 48 46 45 43 43 42 41 39 37 34 32 30 28 25 21 18 15 13 15 21 32 46 45 34 21 11 5 1 359 359 2 7 10 11 11 10 9 8 8 7 5 2 358 354 349 344 338 334 331 328 326 323 322 320 318 316 314 312 313 315 318 320 319 316 314 314 314 313 312 311 309 307 307 306
215 218 220 220 218 210 197 189 189 192 192 188 182 177 172 169 163 156 147 131 112 95 83 72 64 59 55 52 50 49 48 46 45 45 44 42 40 38 36 34 32 31 29 28 27 26 25 28 33 39 45 42 29 15 6 1 357 355 355 0 6 10 10 10 10 9 8 7 6 5 2 358 354 349 343 340 337 335 333 331 329 328 327 326 323 319 316 314 314 315 316 316 314 313 317 319 319 317 316 316 316 314 312
216 219 220 219 216 208 196 190 192 197 195 192 186 180 177 174 170 164 156 138 114 96 82 72 64 59 55 52 50 49 48 47 46 45 44 42 40 39 37 35 35 34 34 34 34 34 35 36 38 41 42 37 22 9 1 358 355 353 355 0 6 9 9 8 8 7 6 4 4 3 1 358 353 348 345 342 341 339 337 335 333 333 333 332 329 325 320 316 313 312 312 314 314 316 323 325 324 322 321 321 319 317 315
217 221 222 220 215 207 197 193 197 200 199 195 189 184 180 178 177 176 168 148 120 98 84 74 66 59 55 52 51 50 49 47 46 45 44 42 40 38 37 36 36 37 37 39 39 39 38 37 35 35 34 28 15 5 360 357 356 355 358 3 6 7 6 5 4 3 2 1 0 0 359 357 354 350 347 346 345 343 340 337 336 336 335 335 333 329 324 318 313 311 311 313 315 320 327 329 328 327 326 325 322 319 316
217 222 224 222 216 208 200 197 200 203 201 198 192 188 184 183 184 185 178 157 129 105 88 76 67 60 55 52 51 49 50 48 46 45 43 41 39 37 36 36 37 38 40 42 42 40 37 33 29 25 23 18 11 5 1 359 358 359 2 4 4 3 2 0 359 358 357 356 356 357 357 356 354 352 350 349 348 345 342 339 338 337 337 336 335 331 327 321 316 311 309 309 312 319 326 328 331 332 331 329 326 321 318
217 223 226 225 219 210 202 201 203 205 203 200 196 192 189 188 189 189 183 164 138 114 93 78 67 61 56 52 51 50 50 49 47 45 43 40 38 37 36 36 37 40 41 43 42 39 35 30 25 21 18 15 11 7 3 0 0 0 2 2 1 358 356 353 352 351 351 352 353 353 354 354 354 353 352 351 350 347 344 341 338 338 338 338 337 334 330 326 322 317 312 308 308 313 319 323 329 334 334 332 329 325 324
219 223 227 227 222 213 205 204 206 206 204 202 199 196 195 193 193 191 185 169 151 127 100 80 67 60 55 52 50 50 49 48 47 44 42 40 38 37 36 36 38 40 42 42 41 37 31 26 22 19 17 15 11 7 3 1 360 360 360 359 356 353 349 347 345 345 345 347 349 350 352 353 353 353 353 352 350 348 344 341 339 338 338 338 338 337 334 331 330 328 323 316 310 308 313 320 329 333 335 335 333 332 333
220 224 228 229 225 216 208 206 207 207 206 204 202 201 199 197 196 193 187 176 163 140 106 80 67 58 52 50 49 48 48 47 45 43 41 39 37 36 36 36 38 40 41 42 39 34 28 23 19 16 15 14 11 6 2 359 358 357 356 355 351 347 343 340 339 338 340 342 345 348 350 351 351 352 351 351 349 347 345 341 339 338 338 338 338 338 337 337 337 337 334 328 319 312 312 320 330 335 336 338 338 338 340
220 225 229 231 228 220 211 208 208 208 207 206 205 204 203 201 199 196 191 185 176 153 110 80 65 55 50 47 46 46 47 46 44 42 40 38 36 35 35 36 38 39 41 41 38 32 26 21 17 15 14 13 9 4 0 357 355 353 352 350 346 341 337 335 334 334 335 338 342 345 347 348 349 349 349 349 348 346 344 341 339 337 336 337 337 338 338 339 341 343 343 340 333 324 317 321 330 336 339 340 341 342 341
219 223 227 230 229 223 214 209 209 209 209 209 208 207 206 205 203 200 198 196 190 169 116 80 62 53 47 45 44 44 45 45 43 41 38 37 35 34 34 36 38 40 42 41 37 31 25 20 17 15 13 12 8 4 359 356 353 351 348 345 340 336 334 334 334 333 334 336 339 342 344 345 347 347 347 347 346 344 342 339 337 335 335 335 336 336 338 339 342 345 347 347 345 340 331 327 331 338 342 341 341 342 341
220 223 226 229 230 226 218 212 210 211 211 211 210 210 210 208 207 206 206 205 199 181 129 81 59 49 44 42 41 41 42 43 41 40 37 34 33 32 33 35 38 40 42 41 37 31 24 19 16 14 12 11 7 3 358 354 352 349 345 340 337 335 334 334 333 333 333 334 336 339 341 343 344 345 346 345 343 341 339 336 334 333 333 333 334 335 336 339 342 345 348 350 353 353 349 342 339 342 344 343 342 343 344
221 223 226 230 232 230 224 216 213 212 212 212 212 212 213 212 211 211 211 210 203 186 151 86 51 41 39 39 38 37 38 39 38 37 35 33 31 29 31 34 37 40 41 40 36 30 24 18 14 12 11 9 6 2 358 354 351 348 344 341 338 335 334 332 332 332 332 333 334 336 338 340 342 344 344 343 341 338 335 333 331 330 330 331 332 333 335 338 341 344 347 351 356 359 359 357 353 350 350 347 347 347 348
222 224 227 230 233 233 229 221 215 213 213 213 213 213 214 214 215 215 215 214 208 195 174 137 32 27 31 34 34 33 33 33 33 33 32 32 30 28 27 31 36 40 40 40 35 29 23 17 13 10 9 7 4 1 357 353 350 347 346 343 340 336 334 333 332 331 331 331 332 332 334 336 339 341 343 341 338 335 332 330 328 327 327 328 329 331 333 336 339 342 346 350 355 359 0 1 1 1 359 353 351 350 349
224 225 227 230 233 234 233 225 218 215 214 213 213 214 215 216 217 217 218 217 211 200 190 200 295 3 18 25 27 27 27 27 26 25 26 27 28 28 29 30 34 37 38 38 34 28 22 15 11 7 6 5 3 1 358 354 351 348 347 344 342 339 337 335 333 332 330 329 330 330 330 332 335 338 340 340 338 334 331 328 325 325 325 325 326 328 330 333 336 339 342 346 351 355 356 357 359 3 5 358 352 349 347
225 226 227 229 232 234 234 228 221 216 215 214 213 214 216 216 217 219 220 218 213 204 204 219 249 322 2 14 19 20 21 21 20 19 19 21 24 27 31 32 31 31 30 30 29 25 19 12 7 4 4 4 3 1 358 355 353 350 348 346 344 342 339 337 335 332 330 329 328 329 328 330 332 334 336 337 336 334 331 327 325 323 323 323 324 325 327 329 332 335 338 341 344 347 349 350 354 359 3 356 350 346 344
225 226 228 230 233 235 235 230 223 217 216 215 214 215 216 217 218 219 220 218 213 210 213 225 242 279 338 1 8 13 15 16 16 16 15 16 19 23 27 31 32 29 25 25 24 21 14 6 1 0 3 4 3 1 360 357 355 352 350 348 346 343 340 338 335 333 331 330 330 330 330 330 332 333 334 335 335 334 333 329 326 323 322 322 322 324 326 328 330 332 334 336 337 340 342 344 348 354 359 353 347 343 341
225 227 229 232 234 236 236 230 223 218 217 216 216 216 217 217 218 220 221 219 215 214 220 228 242 263 300 335 352 2 9 11 12 12 13 14 16 19 23 28 36 42 37 30 24 18 9 358 354 355 3 5 4 2 0 358 356 353 352 349 346 343 340 338 335 333 332 332 332 334 335 335 334 334 333 334 334 335 335 333 329 325 322 321 321 322 324 326 328 330 331 331 332 334 337 340 344 350 355 352 346 341 338
226 228 230 233 235 237 236 230 223 219 217 217 218 218 219 219 220 221 221 219 217 218 223 231 241 256 284 313 335 351 0 4 5 7 9 13 16 18 21 22 27 37 42 39 33 13 357 354 356 2 3 3 3 2 0 358 356 353 352 349 346 343 340 338 336 334 334 335 337 338 339 338 337 336 334 334 334 335 336 336 334 330 325 322 320 320 322 323 325 327 328 328 329 331 334 338 343 348 350 348 344 340 336
228 230 232 234 236 238 237 230 224 219 218 218 219 220 221 221 222 222 222 221 220 222 227 233 241 253 276 301 324 340 349 356 359 1 3 9 14 18 21 20 20 22 25 26 22 3 349 356 2 5 0 359 359 359 358 356 354 353 352 349 347 344 341 339 337 337 338 339 340 340 340 340 338 337 336 335 335 335 335 336 335 333 328 323 320 317 317 318 320 322 323 324 326 329 332 336 341 344 345 342 339 337 335
230 231 233 235 237 238 236 231 224 219 218 219 220 221 222 223 224 224 224 223 223 225 229 233 239 250 269 292 312 329 340 346 351 355 358 3 9 14 17 23 24 20 7 4 359 356 356 2 6 4 355 352 353 354 353 352 351 351 351 350 348 345 342 341 340 341 341 342 343 342 341 339 339 339 338 337 337 336 334 333 333 331 329 325 321 316 313 312 313 316 318 320 323 326 330 334 338 339 339 337 335 334 333
232 233 235 236 237 238 236 231 224 220 219 219 221 222 222 223 224 225 225 225 225 227 231 234 240 249 265 286 304 319 330 337 343 349 354 357 2 7 12 17 24 28 20 8 2 1 2 4 7 3 347 347 349 350 350 350 349 349 349 349 348 347 345 344 342 342 343 343 344 343 341 340 340 340 340 339 339 337 334 332 330 329 328 326 324 321 317 315 314 315 317 319 322 325 329 332 334 334 334 332 331 331 330
234 235 236 237 238 237 236 231 225 221 219 220 221 222 223 223 224 225 226 226 227 229 231 235 240 248 263 281 297 311 321 330 336 342 347 353 357 1 5 9 12 15 17 14 10 8 6 5 5 0 350 348 347 346 347 347 347 347 347 347 347 347 346 345 344 343 342 342 343 343 342 341 341 341 342 341 340 337 334 331 329 328 328 328 328 328 326 325 324 323 324 324 325 327 328 330 330 330 330 329 328 328 327
235 237 238 238 238 237 235 231 226 222 220 221 222 222 223 224 225 226 227 228 229 230 233 236 240 249 262 277 291 303 313 323 330 336 342 347 352 356 360 3 5 7 8 8 8 6 6 5 2 359 355 348 343 343 344 345 344 343 343 344 344 345 345 345 344 343 343 343 343 343 343 343 343 343 343 342 340 338 335 332 330 328 328 330 331 332 332 331 330 329 329 329 329 328 328 328 328 328 327 326 326 325 324
236 238 238 238 238 236 235 232 227 223 221 221 222 223 224 225 226 227 228 229 230 231 233 236 241 248 259 273 286 297 307 316 324 331 338 342 347 352 356 359 1 3 4 4 3 2 1 1 360 358 354 346 341 340 341 342 341 341 340 340 341 342 343 344 344 344 344 344 344 344 344 345 345 345 345 343 341 339 337 334 331 330 329 330 331 332 332 331 330 329 329 328 327 326 326 326 326 325 325 324 324 323 322
237 238 239 238 237 235 234 231 228 224 222 222 222 223 224 225 226 228 229 230 231 232 234 236 241 248 257 269 281 292 301 310 318 325 334 339 344 348 352 356 358 0 1 2 0 359 358 356 355 354 352 348 344 341 338 339 339 339 337 337 337 338 340 342 343 344 345 345 345 346 346 347 347 348 346 344 342 340 339 336 333 331 329 329 329 329 328 327 326 326 325 324 322 322 322 322 322 322 322 322 321 321 319